Location: Coudures
(43.6918°N, 0.5190°W)
Time: 23:14:11
(UTC+00:00)

Daily predictions for brighter satellites

Satellite Brightness Start Highest point End
(mag) Time Altitude Azimuth Time Altitude Azimuth Time Altitude Azimuth
Cosmos 1503 Rocket 4.0 16:48:00 10° SSW 16:53:14 83° ESE 16:58:28 10° NNE
Lacrosse 5 rocket 3.4 16:54:25 10° NNW 16:55:37 11° N 16:56:49 10° N
EXPRESS MD2 3.9 16:54:03 10° SSW 16:55:57 22° SE 16:58:23 10° E
Cosmos 1484 Rocket 2.5 16:54:55 10° SSE 16:58:25 88° ENE 17:01:55 10° NNW
Thor Agena Rocket 3.6 16:54:33 10° SSE 16:59:38 58° ENE 17:04:41 10° N
CZ-4C R/B 3.1 16:53:09 10° NW 17:00:19 82° NE 17:09:09 10° SE
Cosmos 1544 Rocket 4.3 16:56:08 10° SSW 17:00:29 58° W 17:04:52 10° N
UNK 4.0 16:56:15 10° NNE 17:00:41 48° E 17:05:04 10° S
Cosmos 1743 2.5 16:59:33 10° NNW 17:02:47 74° W 17:05:59 10° S
NOSS 2-3 (D) 3.4 16:59:22 10° SSW 17:03:00 52° ESE 17:06:40 10° NE
NOSS 2-3 (E) 3.3 17:00:01 10° SSW 17:03:39 59° ESE 17:07:19 10° NE
Cosmos 1354 Rocket 4.0 16:59:02 10° S 17:04:16 73° ESE 17:09:30 10° NNE
IGS 5A 3.3 17:01:55 10° SSE 17:05:52 85° ENE 17:09:51 10° N
Cosmos 1777 Rocket 4.5 17:01:17 10° SSW 17:06:29 65° WNW 17:11:43 10° NNE
USA 238 DEB 3.9 17:02:26 10° S 17:08:08 47° ESE 17:14:20 10° NE
USA 238 3.9 17:02:33 10° S 17:08:15 46° ESE 17:14:26 10° NE
MOS 1 Rocket 4.1 17:04:51 10° SE 17:09:20 35° ENE 17:14:00 10° N
Cosmos 2151 3.0 17:06:46 10° N 17:10:56 86° W 17:15:06 10° S
Gbstr 26 Del rocket 3.1 17:08:45 10° WSW 17:12:57 60° NNW 17:16:29 11° NE
Cosmos 1726 Rocket 4.0 17:09:12 10° SSE 17:13:36 45° E 17:17:58 10° NNE
Cosmos 1900 4.4 17:08:53 10° NNW 17:13:56 85° WSW 17:18:51 10° SSE
USA 215 4.4 17:12:31 10° NE 17:17:56 29° N 17:23:21 10° WNW
SMAP 3.0 17:13:31 10° SSE 17:18:08 69° ENE 17:22:47 10° N
IRIDIUM 104 4.3 17:13:45 10° N 17:19:01 86° E 17:24:14 10° S
Meteor 1-20 Rocket 4.3 17:15:18 10° NNW 17:20:47 82° W 17:26:16 10° S
Cosmos 2084 Rocket 4.2 17:17:02 10° NW 17:21:09 55° WSW 17:25:14 10° SSE
Landsat 7 3.8 17:17:43 10° SSE 17:22:16 59° ENE 17:26:52 10° N
Cosmos 2297 Rocket 3.3 17:17:28 10° NW 17:22:54 48° WSW 17:28:18 10° S
Cosmos 1602 Rocket 4.2 17:19:45 10° NNW 17:24:04 60° W 17:28:19 10° S
GEOS 3 Rocket 3.7 17:19:35 10° NE 17:25:00 80° SE 17:30:22 10° SW
YAOGAN 1 3.9 17:22:24 10° ESE 17:25:18 18° ENE 17:28:11 10° NNE
IRIDIUM 114 4.5 17:22:54 10° N 17:28:09 79° W 17:33:21 10° S
SL-16 R/B 4.0 17:28:06 10° ESE 17:29:26 11° E 17:29:26 11° E
NOSS 7 (H) 4.4 17:26:34 10° NW 17:29:31 73° SW 17:32:54 10° SSE
Cosmos 990 Rocket 4.1 17:26:32 10° SSW 17:31:39 77° WNW 17:36:50 10° NNE
Okean 1-7 Rocket 3.8 17:27:31 10° NNW 17:31:53 74° W 17:36:13 10° S
CZ-2D R/B 4.5 17:29:54 10° ESE 17:33:17 24° ENE 17:36:38 10° NNE
COSMOS 2455 4.1 17:31:46 10° SSE 17:36:11 22° ESE 17:38:36 17° ENE
SL-16 R/B 3.5 17:30:52 10° N 17:36:47 48° WNW 17:42:40 10° SW
Okean 1 4.1 17:34:23 10° SE 17:37:20 24° E 17:38:20 21° ENE
SKYMED 2 4.2 17:35:14 12° NNE 17:38:55 34° E 17:42:52 10° SSE
SJ-6F 4.3 17:39:38 10° SSE 17:43:32 58° ENE 17:47:30 10° N
Cosmos 1980 Rocket 2.2 17:38:22 10° SSW 17:43:59 72° ESE 17:49:21 11° NNE
Cosmos 1844 Rocket 4.1 17:41:58 10° N 17:45:40 17° NE 17:45:49 17° NE
Aureole 1 Rocket 3.3 17:41:37 10° S 17:45:59 68° ESE 17:51:36 10° NNE
Cosmos 2219 3.5 17:40:45 10° NNW 17:46:17 46° ENE 17:51:47 10° SE
Meteor 1-26 Rocket 4.4 17:42:15 10° SSE 17:47:20 44° E 17:52:26 10° NNE
Cosmos 1953 Rocket 3.5 17:44:25 10° N 17:48:52 70° E 17:53:18 10° SSE
PSLV R/B 4.5 17:46:06 10° ESE 17:49:59 24° NE 17:52:42 10° NNE
ARIANE 5 R/B 2.7 17:46:10 10° S 17:51:13 78° WSW 17:56:23 10° NNW
IRS-1C 4.3 17:47:35 10° S 17:52:54 77° WSW 17:58:15 10° NNW
Cosmos 2263 Rocket 2.1 17:48:50 10° NNW 17:54:32 77° ENE 18:00:13 10° SSE
BREEZE-M DEB (TANK) 2.5 17:51:51 10° SW 17:56:27 61° SSE 17:57:14 39° E
Cosmos 1825 Rocket 4.3 17:52:25 10° NNW 17:56:39 54° W 18:00:50 10° S
SAR-Lupe-4 4.2 17:54:37 10° S 17:58:07 58° WSW 18:01:38 10° NNW
Meteor 1-5 Rocket 4.3 17:53:52 10° NNW 17:59:16 78° W 18:04:47 10° S
BREEZE-M DEB (TANK) 4.0 17:55:49 10° WNW 17:59:26 58° NNE 18:06:53 19° E
Cosmos 1680 Rocket 4.3 17:55:20 10° N 17:59:49 28° ENE 18:00:24 27° ENE
COSMO-SKYMED 1 3.0 17:59:08 31° ENE 18:00:14 36° E 18:04:03 10° SSE
Cosmos 2369 3.8 17:56:06 10° S 18:01:40 56° ESE 18:05:20 22° NE
Cosmos 1076 Rocket 3.7 17:59:11 10° NNW 18:03:30 73° W 18:07:47 10° S
Meteor 2-10 4.0 17:58:21 10° N 18:03:46 73° E 18:09:21 10° SSE
Cosmos 1655 Rocket 4.2 18:06:20 10° NNW 18:12:32 71° W 18:18:41 10° S
USA 81 3.9 18:07:41 10° N 18:12:59 85° E 18:18:15 10° S
Cosmos 2227 Rocket 3.4 18:09:14 10° NW 18:14:33 43° WSW 18:19:50 10° S
SPOT 1/Viking Rocket 3.5 18:10:05 10° SSE 18:15:17 85° ENE 18:20:31 10° NNW
Cosmos 2058 Rocket 3.3 18:17:54 10° SSW 18:22:21 71° W 18:26:26 12° N
Cosmos 1697 Rocket 4.4 18:19:04 10° WSW 18:23:51 28° NW 18:28:40 10° N
USA 308 4.5 18:28:23 10° S 18:29:25 17° S 18:29:25 17° S
Cosmos 2333 Rocket 3.5 18:26:45 10° SSE 18:29:34 23° SE 18:29:34 23° SE
Lacrosse 5 rocket 3.7 18:32:25 10° NNW 18:32:25 10° NNW 18:32:25 10° NNW
Meteor 2-11 Rocket 4.3 18:29:46 10° N 18:35:56 67° E 18:42:01 10° SSE
Meteor 1-14 Rocket 4.5 18:34:26 10° N 18:39:09 47° NE 18:39:09 47° NE
Resurs 1-3 3.6 18:37:55 10° S 18:42:12 75° W 18:46:31 10° NNW
Cosmos 2322 Rocket 4.1 18:37:51 10° SSE 18:39:03 15° SSE 18:39:03 15° SSE
Cosmos-2242 4.1 18:40:46 10° SSW 18:44:48 42° WNW 18:47:45 17° NNW
USA 59 Rocket 2.4 18:44:54 10° S 18:45:01 10° S 18:45:01 10° S
Spot 4 Rocket 4.4 18:46:57 10° S 18:51:59 63° WSW 18:57:05 10° NNW
Cosmos 1553 Rocket 4.4 18:53:02 10° SSW 18:59:06 62° W 19:05:21 10° N
S3M 3.9 18:53:21 10° S 18:59:18 64° ESE 18:59:18 64° ESE
USA 215 4.2 18:59:28 31° NNE 18:59:46 31° NNE 19:05:22 10° NW
IRAS Rocket 4.4 18:54:33 10° S 19:00:00 70° WSW 19:05:29 10° NNW
YAOGAN 1 3.6 18:56:44 10° S 19:00:48 44° W 19:04:54 10° NNW
Cosmos 2082 4.2 18:57:41 10° NNW 19:03:17 58° WSW 19:08:52 10° S
BREEZE-M DEB (TANK) 3.1 18:59:15 10° SW 19:06:16 83° S 19:06:16 83° S
Cosmos 1937 Rocket 4.5 19:04:24 10° SW 19:09:19 42° WNW 19:10:58 33° NNW
Meteor 2-6 Rocket 4.5 19:03:55 10° SSW 19:09:33 69° WNW 19:11:37 41° N
SL-16 R/B 2.5 19:06:54 10° SSW 19:11:20 56° S 19:11:20 56° S
SL-24 R/B - RUBIN 2 4.5 19:10:35 10° SW 19:15:41 54° WNW 19:15:41 54° WNW
Cosmos 1745 Rocket 3.9 19:11:49 10° N 19:18:00 82° W 19:24:07 10° S
COSMOS 2455 3.0 19:15:33 10° SW 19:21:32 66° WNW 19:21:46 65° NW
Cosmos 1980 Rocket 4.3 19:24:23 10° W 19:28:33 21° NW 19:31:06 16° NNW
Cosmos 1844 Rocket 4.0 19:24:38 10° NNW 19:27:31 31° NNW 19:27:31 31° NNW
Cosmos 2333 Rocket 4.4 20:10:01 10° SW 20:11:39 19° SW 20:11:39 19° SW
